This is the latest recevied weather packets stored in our database for station/object KF4UQS-14. If no packets are shown the sender has not sent any weather packets the latest 1 day(s).
| Time | Temp. | Humidity | Pressure | Rain* | Wind** | Luminosity | Snow |
|---|---|---|---|---|---|---|---|
| 1778037307 | 18.89° C | 77% | 1016.3 hPa | 0 mm | 2.68 m/s, 209° | 0 W/m² | - |
| 1778037004 | 18.89° C | 76% | 1016.5 hPa | 0 mm | 1.34 m/s, 200° | 0 W/m² | - |
| 1778036702 | 18.89° C | 76% | 1016.3 hPa | 0 mm | 2.68 m/s, 193° | 0 W/m² | - |
| 1778036399 | 18.89° C | 75% | 1016.5 hPa | 0 mm | 1.79 m/s, 178° | 0 W/m² | - |
| 1778036095 | 18.89° C | 75% | 1016.5 hPa | 0 mm | 1.79 m/s, 226° | 0 W/m² | - |
| 1778035792 | 19.44° C | 74% | 1016.5 hPa | 0 mm | 2.24 m/s, 189° | 0 W/m² | - |
| 1778035488 | 19.44° C | 74% | 1016.5 hPa | 0 mm | 2.24 m/s, 198° | 0 W/m² | - |
| 1778035184 | 19.44° C | 73% | 1016.7 hPa | 0 mm | 3.13 m/s, 198° | 0 W/m² | - |
| 1778034882 | 19.44° C | 73% | 1016.5 hPa | 0 mm | 2.68 m/s, 193° | 0 W/m² | - |
| 1778034578 | 19.44° C | 72% | 1016.4 hPa | 0 mm | 3.13 m/s, 202° | 0 W/m² | - |
| 1778034276 | 19.44° C | 72% | 1016.7 hPa | 0 mm | 4.02 m/s, 175° | 0 W/m² | - |
| 1778033974 | 19.44° C | 73% | 1016.6 hPa | 0 mm | 3.13 m/s, 194° | 0 W/m² | - |
| 1778033671 | 19.44° C | 72% | 1016.6 hPa | 0 mm | 3.13 m/s, 184° | 0 W/m² | - |
| 1778033368 | 19.44° C | 72% | 1016.3 hPa | 0 mm | 2.68 m/s, 175° | 0 W/m² | - |
| 1778033066 | 20° C | 72% | 1016.6 hPa | 0 mm | 2.68 m/s, 190° | 0 W/m² | - |
| 1778032762 | 20° C | 71% | 1016.5 hPa | 0 mm | 4.02 m/s, 183° | 0 W/m² | - |
| 1778032460 | 20° C | 71% | 1016.2 hPa | 0 mm | 3.13 m/s, 200° | 0 W/m² | - |
| 1778032157 | 20° C | 71% | 1016.4 hPa | 0 mm | 2.24 m/s, 207° | 0 W/m² | - |
| 1778031854 | 20° C | 71% | 1016.2 hPa | 0 mm | 4.02 m/s, 207° | 0 W/m² | - |
| 1778031550 | 20° C | 70% | 1016.3 hPa | 0 mm | 3.58 m/s, 161° | 0 W/m² | - |
| 1778031249 | 20° C | 70% | 1016.4 hPa | 0 mm | 3.13 m/s, 190° | 0 W/m² | - |
| 1778030944 | 20° C | 70% | 1016.3 hPa | 0 mm | 2.68 m/s, 200° | 0 W/m² | - |
| 1778030641 | 20.56° C | 69% | 1016.2 hPa | 0 mm | 2.68 m/s, 190° | 0 W/m² | - |
| 1778030338 | 20.56° C | 69% | 1016.1 hPa | 0 mm | 1.79 m/s, 219° | 0 W/m² | - |
| 1778030035 | 20.56° C | 69% | 1016.1 hPa | 0 mm | 4.02 m/s, 181° | 0 W/m² | - |
* Rain latest hour (hover to see other rain measurements)
** Current wind speed in m/s (hover to see current wind gust speed)